CW2969 Weather Reports


time (UTC)temp
F
wind
direction
speed
knots
gust
knots
rain 1hr
in
rain 24hr
in
rain mn
in
humidity
%
barometer
mb
20260507070016 63 262 2.6 2.6 0.00 0.00 0.00 79 1014.1
20260507065516 63 110 1.7 6.1 0.00 0.00 0.00 79 1014.3
20260507065016 63 87 0.9 6.1 0.00 0.00 0.00 79 1014.0
20260507064516 63 165 0.9 5.2 0.00 0.00 0.00 79 1014.2
20260507064016 63 123 2.6 5.2 0.00 0.00 0.00 79 1014.3
20260507063516 63 103 2.6 7.8 0.00 0.00 0.00 79 1014.2
20260507063016 63 273 6.1 7.8 0.00 0.00 0.00 79 1014.0
20260507061515 63 99 5.2 10.4 0.00 0.00 0.00 78 1013.9
20260507061015 63 144 0.9 3.5 0.00 0.00 0.00 78 1014.0
20260507060516 63 114 1.7 5.2 0.00 0.00 0.00 78 1013.9
20260507060015 63 5 1.7 5.2 0.00 0.00 0.00 78 1013.8
20260507055515 64 330 0.9 3.5 0.00 0.00 0.00 78 1013.6
20260507055015 64 96 1.7 3.5 0.00 0.00 0.00 78 1013.7
20260507054515 64 113 2.6 2.6 0.00 0.00 0.00 78 1013.8
20260507054015 64 86 0.9 5.2 0.00 0.00 0.00 78 1013.9
20260507053515 64 261 1.7 5.2 0.00 0.00 0.00 78 1013.9
20260507053015 64 86 0.9 4.3 0.00 0.00 0.00 78 1013.7
20260507052515 64 94 3.5 4.3 0.00 0.00 0.00 78 1013.9
20260507051515 64 322 2.6 7.0 0.00 0.00 0.00 78 1013.4
20260507051014 64 346 1.7 4.3 0.00 0.00 0.00 78 1013.6
20260507050514 64 76 1.7 4.3 0.00 0.00 0.00 78 1013.5
20260507050014 64 207 1.7 4.3 0.00 0.00 0.00 78 1013.6
20260507045515 64 125 1.7 5.2 0.00 0.00 0.00 78 1013.7
20260507044514 64 123 0.9 4.3 0.00 0.00 0.00 78 1013.6
20260507044014 64 11 1.7 4.3 0.00 0.00 0.00 78 1013.4
20260507043514 64 96 2.6 5.2 0.00 0.00 0.00 78 1013.7
20260507043014 64 84 0.9 5.2 0.00 0.00 0.00 78 1013.7
20260507042514 64 333 1.7 5.2 0.00 0.00 0.00 78 1013.8
20260507042014 64 25 0.9 5.2 0.00 0.00 0.00 78 1013.7
20260507041514 64 325 0.9 4.3 0.00 0.00 0.00 78 1013.6
20260507041013 64 327 1.7 7.8 0.00 0.00 0.00 78 1013.5
20260507040513 64 344 1.7 7.8 0.00 0.00 0.00 78 1013.3
20260507035513 64 314 2.6 6.1 0.00 0.00 0.00 78 1013.4
20260507035013 65 339 2.6 6.1 0.00 0.00 0.00 78 1013.9
20260507034513 65 27 2.6 5.2 0.00 0.00 0.00 78 1013.7
20260507034013 65 355 3.5 6.1 0.00 0.00 0.00 78 1013.5
20260507033513 65 110 2.6 9.6 0.00 0.00 0.00 78 1013.5
20260507033013 65 355 4.3 9.6 0.00 0.00 0.00 78 1013.3
20260507031513 65 321 1.7 4.3 0.00 0.00 0.00 78 1013.5
20260507031013 65 308 1.7 7.0 0.00 0.00 0.00 78 1013.6
20260507030513 65 324 0.9 7.0 0.00 0.00 0.00 77 1013.5
20260507030013 65 214 3.5 7.0 0.00 0.00 0.00 77 1013.2
20260507025513 66 143 2.6 6.1 0.00 0.00 0.00 77 1012.9
20260507025013 66 115 0.9 6.1 0.00 0.00 0.00 77 1013.0
20260507024513 66 107 2.6 5.2 0.00 0.00 0.00 77 1012.8
20260507024013 66 350 5.2 5.2 0.00 0.00 0.00 77 1012.7
20260507023513 66 80 0.9 3.5 0.00 0.00 0.00 77 1013.0
20260507023013 66 355 0.9 6.1 0.00 0.00 0.00 77 1013.0
20260507022513 66 344 0.9 6.1 0.00 0.00 0.00 77 1012.9
20260507021512 66 144 0.9 5.2 0.00 0.00 0.00 77 1012.4
20260507021013 66 327 0.9 2.6 0.00 0.00 0.00 77 1012.3
20260507020513 66 280 0.0 2.6 0.00 0.00 0.00 77 1012.4
20260507020012 66 101 0.0 2.6 0.00 0.00 0.00 77 1012.4
20260507015513 66 114 0.9 2.6 0.00 0.00 0.00 77 1012.3
20260507015012 66 16 0.0 2.6 0.00 0.00 0.00 77 1012.2
20260507014512 66 360 0.9 5.2 0.00 0.00 0.00 77 1012.0
20260507014012 66 319 2.6 5.2 0.00 0.00 0.00 77 1011.9
20260507013512 66 44 0.9 3.5 0.00 0.00 0.00 77 1011.9
20260507013012 66 342 3.5 3.5 0.00 0.00 0.00 77 1011.8
20260507012512 66 344 2.6 5.2 0.00 0.00 0.00 77 1011.6
20260507012012 66 342 2.6 5.2 0.00 0.00 0.00 77 1011.8
20260507011012 66 327 0.9 5.2 0.00 0.00 0.00 76 1011.7
20260507010512 66 355 5.2 7.0 0.00 0.00 0.00 76 1011.6
20260507010012 66 329 4.3 7.0 0.00 0.00 0.00 76 1011.4
20260507005512 66 330 3.5 5.2 0.00 0.00 0.00 76 1011.4
20260507005012 66 32 0.0 4.3 0.00 0.00 0.00 76 1011.3
20260507004512 66 13 0.9 7.8 0.00 0.00 0.00 76 1011.3
20260507004012 66 315 2.6 7.8 0.00 0.00 0.00 76 1011.0
20260507003512 66 331 2.6 4.3 0.00 0.00 0.00 76 1011.2
20260507003012 66 127 0.9 5.2 0.00 0.00 0.00 76 1011.0
20260507002512 66 285 2.6 7.0 0.00 0.00 0.00 76 1011.0
20260507002012 66 60 3.5 7.0 0.00 0.00 0.00 76 1011.3
20260507001511 66 338 0.9 5.2 0.00 0.00 0.00 76 1011.0
20260507001011 66 205 2.6 5.2 0.00 0.00 0.00 76 1010.9
20260507000512 66 5 1.7 5.2 0.00 0.00 0.00 76 1011.0
20260507000012 66 321 3.5 5.2 0.00 0.00 0.00 76 1010.9
20260506235511 66 28 1.7 7.8 0.00 0.00 0.00 76 1010.8
20260506235011 66 336 3.5 7.8 0.00 0.00 0.00 75 1010.9
20260506234511 66 119 3.5 7.8 0.00 0.00 0.00 75 1011.0
20260506234011 66 107 1.7 7.8 0.00 0.00 0.00 75 1010.9
20260506232511 67 39 1.7 10.4 0.00 0.00 0.00 74 1010.6
20260506232011 67 44 1.7 10.4 0.00 0.00 0.00 74 1010.6
20260506230511 67 333 5.2 7.8 0.00 0.00 0.00 73 1010.6
20260506230011 68 333 1.7 7.8 0.00 0.00 0.00 73 1010.7
20260506225511 68 30 1.7 7.0 0.00 0.00 0.00 73 1010.7
20260506225011 69 336 7.0 7.0 0.00 0.00 0.00 72 1010.5
20260506224511 69 360 4.3 10.4 0.00 0.00 0.00 72 1010.4
20260506224011 69 355 7.8 10.4 0.00 0.00 0.00 72 1010.5
20260506223511 69 336 2.6 10.4 0.00 0.00 0.00 71 1010.4
20260506222511 71 128 3.5 7.0 0.00 0.00 0.00 71 1010.2
20260506222011 71 344 3.5 7.0 0.00 0.00 0.00 71 1010.2
20260506221511 71 111 0.9 10.4 0.00 0.00 0.00 70 1010.3
20260506221010 71 253 6.1 10.4 0.00 0.00 0.00 71 1010.1
20260506215510 71 54 2.6 4.3 0.00 0.00 0.00 71 1010.1
20260506215011 72 342 3.5 7.0 0.00 0.00 0.00 70 1010.2
20260506214510 72 167 5.2 7.0 0.00 0.00 0.00 70 1010.2
20260506214010 73 121 0.9 7.0 0.00 0.00 0.00 69 1010.1
20260506213511 74 329 1.7 7.8 0.00 0.00 0.00 69 1010.0
20260506213010 74 46 0.0 11.3 0.00 0.00 0.00 69 1009.9
20260506212010 75 355 0.9 9.6 0.00 0.00 0.00 70 1009.9
20260506211511 75 333 3.5 9.6 0.00 0.00 0.00 70 1009.7
20260506211010 75 200 0.9 10.4 0.00 0.00 0.00 70 1009.8
20260506210510 75 338 1.7 10.4 0.00 0.00 0.00 71 1009.7
20260506210010 75 114 5.2 7.8 0.00 0.00 0.00 71 1009.9
20260506205510 75 360 3.5 8.7 0.00 0.00 0.00 72 1010.0
20260506205010 75 348 2.6 8.7 0.00 0.00 0.00 73 1010.1
20260506204510 74 5 7.8 7.8 0.00 0.00 0.00 73 1010.3
20260506204010 74 55 2.6 7.8 0.00 0.00 0.00 74 1010.3
20260506203510 74 350 3.5 7.0 0.00 0.00 0.00 74 1010.3
20260506202509 75 337 4.3 11.3 0.00 0.00 0.00 73 1010.3
20260506201510 77 321 4.3 12.2 0.00 0.00 0.00 72 1010.0
20260506200509 78 311 1.7 7.0 0.00 0.00 0.00 73 1009.6
20260506200009 79 340 1.7 7.0 0.00 0.00 0.00 73 1009.6
20260506195510 79 169 1.7 3.5 0.00 0.00 0.00 73 1009.7
20260506195009 79 110 3.5 3.5 0.00 0.00 0.00 73 1009.7
20260506194509 79 185 0.0 2.6 0.00 0.00 0.00 73 1009.7
20260506194009 79 103 1.7 3.5 0.00 0.00 0.00 74 1009.7
20260506193509 79 304 1.7 3.5 0.00 0.00 0.00 74 1009.7
20260506193009 79 130 0.9 3.5 0.00 0.00 0.00 74 1009.6
20260506192509 79 103 1.7 3.5 0.00 0.00 0.00 74 1009.7
20260506192009 79 331 0.9 3.5 0.00 0.00 0.00 75 1009.8
20260506191509 78 36 1.7 2.6 0.00 0.00 0.00 76 1009.7
20260506190509 77 9 6.1 7.8 0.00 0.00 0.00 76 1009.9
20260506185508 77 112 1.7 4.3 0.00 0.00 0.00 76 1009.8
20260506185008 77 201 1.7 4.3 0.00 0.00 0.00 76 1009.7
20260506184509 77 128 2.6 2.6 0.00 0.00 0.00 77 1009.8
20260506184009 76 304 1.7 2.6 0.00 0.00 0.00 77 1009.8
20260506183508 76 20 0.9 7.0 0.00 0.00 0.00 77 1009.9
20260506183009 76 338 1.7 7.0 0.00 0.00 0.00 76 1010.0
20260506182508 75 157 1.7 2.6 0.00 0.00 0.00 77 1010.0
20260506182008 75 329 0.9 2.6 0.00 0.00 0.00 77 1010.1
20260506181508 75 331 2.6 2.6 0.00 0.00 0.00 78 1009.9
20260506180008 73 36 1.7 7.0 0.00 0.00 0.00 79 1009.9
20260506175508 73 351 2.6 7.0 0.00 0.00 0.00 79 1010.0
20260506175008 72 110 0.9 3.5 0.00 0.00 0.00 79 1009.9
20260506174508 72 340 2.6 4.3 0.00 0.00 0.00 79 1010.0
20260506174008 72 355 4.3 4.3 0.00 0.00 0.00 79 1010.0
20260506173008 72 129 0.9 3.5 0.00 0.00 0.00 79 1010.1
20260506172508 71 360 1.7 3.5 0.00 0.00 0.00 80 1010.3
20260506172008 71 173 0.9 4.3 0.00 0.00 0.00 80 1010.2
20260506171508 70 281 0.9 6.1 0.00 0.00 0.00 80 1010.2
20260506171007 70 130 3.5 6.1 0.00 0.00 0.00 80 1010.3
20260506170507 70 154 0.0 3.5 0.00 0.00 0.00 81 1010.3
20260506170037 69 115 1.7 4.3 0.00 0.00 0.00 81 1010.3
20260506165537 68 161 1.7 4.3 0.00 0.00 0.00 82 1010.4
20260506165037 68 159 3.5 9.6 0.00 0.00 0.00 81 1010.4
20260506164037 68 165 1.7 7.8 0.00 0.00 0.00 81 1011.0
20260506163537 68 38 2.6 7.8 0.00 0.00 0.00 81 1011.2
20260506163037 69 296 3.5 5.2 0.00 0.00 0.00 81 1011.2
20260506162537 70 355 1.7 7.0 0.00 0.00 0.00 80 1011.3
20260506162037 71 360 1.7 7.0 0.00 0.00 0.00 79 1011.3
20260506161537 73 311 1.7 6.1 0.00 0.00 0.00 79 1011.3
20260506161037 76 351 0.9 5.2 0.00 0.00 0.00 79 1011.1
20260506160537 78 59 2.6 2.6 0.00 0.00 0.00 79 1011.0
20260506155537 79 127 0.0 0.9 0.00 0.00 0.00 81 1010.6
20260506154537 79 108 0.0 1.7 0.00 0.00 0.00 81 1010.4
20260506154037 79 91 0.0 1.7 0.00 0.00 0.00 81 1010.3
20260506152536 78 129 0.0 1.7 0.00 0.00 0.00 81 1009.7
20260506152037 78 129 0.9 1.7 0.00 0.00 0.00 81 1009.7
20260506151536 78 129 0.0 0.9 0.00 0.00 0.00 81 1009.7
20260506151037 78 129 0.0 0.9 0.00 0.00 0.00 81 1009.5
20260506150036 78 105 0.9 1.7 0.00 0.00 0.00 81 1009.4
20260506145037 78 128 0.0 1.7 0.00 0.00 0.00 81 1009.1
20260506144536 78 128 0.9 3.5 0.00 0.00 0.00 81 1009.1
20260506144036 78 132 0.9 3.5 0.00 0.00 0.00 81 1009.0
20260506143536 78 99 0.9 0.9 0.00 0.00 0.00 81 1008.9
20260506143036 77 119 0.0 1.7 0.00 0.00 0.00 81 1008.8
20260506141536 77 159 0.0 0.0 0.00 0.00 0.00 81 1008.9
20260506140536 77 159 0.0 0.0 0.00 0.00 0.00 81 1009.1
20260506140036 77 159 0.0 0.0 0.00 0.00 0.00 81 1008.9
20260506135036 77 159 0.0 0.0 0.00 0.00 0.00 81 1008.3
20260506134536 77 159 0.0 0.0 0.00 0.00 0.00 81 1008.3
20260506134037 77 210 0.0 0.0 0.00 0.00 0.00 81 1008.3
20260506133536 77 101 0.0 3.5 0.00 0.00 0.00 81 1008.2
20260506133036 77 215 0.9 3.5 0.00 0.00 0.00 81 1008.1
20260506132535 77 144 1.7 4.3 0.00 0.00 0.00 81 1008.2
20260506132036 77 178 1.7 4.3 0.00 0.00 0.00 81 1008.2
20260506131536 77 117 0.0 2.6 0.00 0.00 0.00 81 1008.2
20260506131036 77 114 2.6 2.6 0.00 0.00 0.00 81 1008.1
20260506130036 76 138 0.0 3.5 0.00 0.00 0.00 81 1008.0
20260506125535 76 107 1.7 3.5 0.00 0.00 0.00 81 1008.0
20260506125035 76 108 1.7 2.6 0.00 0.00 0.00 81 1008.0
20260506124036 76 128 1.7 3.5 0.00 0.00 0.00 82 1007.9
20260506123535 76 134 0.9 1.7 0.00 0.00 0.00 82 1007.9
20260506123035 76 122 0.0 1.7 0.00 0.00 0.00 82 1008.0
20260506122535 76 122 0.0 1.7 0.00 0.00 0.00 82 1008.0
20260506122035 76 122 0.0 0.9 0.00 0.00 0.00 81 1008.0
20260506121535 76 155 0.9 0.9 0.00 0.00 0.00 81 1008.0
20260506121035 76 162 0.0 0.9 0.00 0.00 0.00 81 1007.9
20260506120535 76 162 0.9 0.9 0.00 0.00 0.00 81 1007.9
20260506120035 76 124 0.0 2.6 0.00 0.00 0.00 81 1007.8
20260506115535 76 112 1.7 2.6 0.00 0.00 0.00 81 1007.8
20260506115035 76 129 0.0 0.0 0.00 0.00 0.00 81 1007.8
20260506114535 76 176 0.0 1.7 0.00 0.00 0.00 81 1007.8
20260506114034 76 145 0.0 1.7 0.00 0.00 0.00 82 1007.8
20260506113534 76 179 0.0 2.6 0.00 0.00 0.00 82 1007.9
20260506112534 76 133 0.0 3.5 0.00 0.00 0.00 82 1007.8
20260506112034 76 157 0.0 0.9 0.00 0.00 0.00 82 1007.9
20260506111534 76 157 0.0 1.7 0.00 0.00 0.00 82 1007.9
20260506111034 76 157 0.0 2.6 0.00 0.00 0.00 82 1007.8
20260506110534 76 128 0.0 2.6 0.00 0.00 0.00 82 1007.8
20260506110034 76 156 1.7 2.6 0.00 0.00 0.00 82 1007.8
20260506105534 76 146 2.6 2.6 0.00 0.00 0.00 82 1007.8
20260506105033 76 132 0.0 0.9 0.00 0.00 0.00 82 1007.7
20260506104533 76 132 0.0 3.5 0.00 0.00 0.00 82 1007.7
20260506104033 76 148 0.0 3.5 0.00 0.00 0.00 82 1007.7
20260506103533 76 165 0.0 2.6 0.00 0.00 0.00 82 1007.5
20260506103034 76 226 2.6 2.6 0.00 0.00 0.00 82 1007.4
20260506102533 76 140 0.0 1.7 0.00 0.00 0.00 82 1007.4
20260506102034 76 148 0.0 1.7 0.00 0.00 0.00 82 1007.3
20260506101533 76 119 0.9 1.7 0.00 0.00 0.00 82 1007.3
20260506101033 76 128 0.9 2.6 0.00 0.00 0.00 82 1007.3
20260506095533 76 251 1.7 4.3 0.00 0.00 0.00 82 1007.1
20260506094533 76 182 0.9 3.5 0.00 0.00 0.00 82 1007.0
20260506094033 76 242 0.9 3.5 0.00 0.00 0.00 82 1006.9
20260506093533 76 195 1.7 3.5 0.00 0.00 0.00 82 1006.9
20260506093033 76 96 0.0 3.5 0.00 0.00 0.00 82 1006.8
20260506091533 76 88 2.6 4.3 0.00 0.00 0.00 82 1006.6
20260506091033 76 225 1.7 3.5 0.00 0.00 0.00 82 1006.6
20260506090533 76 213 0.0 7.0 0.00 0.00 0.00 82 1006.7
20260506090033 76 206 1.7 7.0 0.00 0.00 0.00 82 1006.7
20260506085032 76 234 1.7 3.5 0.00 0.00 0.00 82 1006.7
20260506084032 76 157 1.7 6.1 0.00 0.00 0.00 82 1006.7
20260506083532 76 176 2.6 6.1 0.00 0.00 0.00 82 1006.6
20260506083032 77 204 0.0 8.7 0.00 0.00 0.00 82 1006.7
20260506082532 77 90 5.2 8.7 0.00 0.00 0.00 82 1006.7
20260506082032 77 132 1.7 4.3 0.00 0.00 0.00 82 1006.7
20260506081532 77 124 2.6 7.8 0.00 0.00 0.00 82 1006.7
20260506081032 77 127 2.6 7.8 0.00 0.00 0.00 82 1006.7
20260506073031 77 112 7.0 7.0 0.00 0.00 0.00 82 1006.8
20260506072531 77 127 0.9 4.3 0.00 0.00 0.00 82 1007.1
20260506072031 77 227 3.5 8.7 0.00 0.00 0.00 82 1007.1
20260506071531 77 272 5.2 8.7 0.00 0.00 0.00 82 1007.1
20260506071031 77 79 0.9 8.7 0.00 0.00 0.00 82 1007.2